Torna al catalogo

STARLINK-34672

AttivoComunicazioniVLEO
NORAD 65894·PAYLOAD·🇺🇸 United States

Lanciato Oct 7, 2025 da Cape Canaveral Space Force Station

Loading…

Prossimi Passaggi (prossime 24 ore)

TLE

AggiornatoSource: CelesTrak SupGP

Epoca: Sep 14, 2026, 22:34 UTC

1 65894C 25224N   26257.94076389  .00003316  00000+0  97923-4 0  2578
2 65894  53.1589 211.8504 0001453 101.4612 332.7780 15.34401285    18

Traccia STARLINK-34672 in tempo reale con AllMySat

Download on the App Store